Погода в Несмеяновке

Россия / Самарская область     52°36′39″N   51°06′03″E
темп.,
°C
ветер,
м/с
пор.,
м/с
влажн.,
%
обл.,
%
осадки,
мм/ч
давл.,
гПа
погр.,
м
20 сентября, пн
пн2001:00+5всв2254100 0.0 102522
04:00+5всв3359100 0.0 102635
07:00+5в3560100 0.0 1026103
10:00+10вюв4542100 0.0 1025615
13:00+14в4430100 0.0 10251218
16:00+14в4527100 0.0 10231377
19:00+12всв5934100 0.0 1023295
22:00+11в51137100 0.0 1023372
21 сентября, вт
вт2101:00+10вюв51039100 0.0 1023323
04:00+9в61045100 0.1 1023337
07:00+9вюв61141100 0.0 1022454
10:00+10вюв61139100 0.0 1022452
13:00+11вюв61142100 0.2 1021458
16:00+12вюв61150100 0.2 1020537
19:00+11вюв61247100 0.0 1019394
22:00+11вюв5113885 0.0 1018349
22 сентября, ср
ср2201:00+12вюв6145175 0.0 1017405
04:00+11юв61260100 0.0 1016337
07:00+11юв61065100 0.8 1016302
10:00+12юв61350100 1.1 1016384
13:00+18ююв91134100 0.0 1016991
16:00+16ююв6948100 0.1 1016775
19:00+15юв71344100 0.0 1017527
22:00+15юв81432100 0.0 1018511
23 сентября, чт
чт2301:00+14юв71531100 0.0 1018399
04:00+14ююв51034100 0.0 1019342
07:00+13юв51132100 0.0 1020293
10:00+14ююв51127100 0.0 1021622
13:00+14ю6831100 0.1 1022997
16:00+9юв61475100 1.8 1022631
19:00+11юв81676100 0.2 1021679
22:00+12юв81673100 0.2 1020520
24 сентября, пт
пт2401:00+14юв91856100 0.0 1019696
04:00+14юв71548100 0.1 1019496
07:00+12юв81652100 0.0 1018645
10:00+14юв91735100 0.0 1017754
13:00+19юв111420100 0.0 10141330
16:00+21ююв91519100 0.0 10121647
19:00+20юв91618100 0.0 10101013
22:00+19юв112020100 0.0 1008858